Regional Weather Roundup
Issued by NWS Grand Forks, ND

Home | Current Version | Previous Version | Text Only | Print | Product List | Glossary On
Versions: 1 2 3 4 5 6 7 8 9 10 11 12 13 14 15 16 17 18 19 20 21 22 23 24 25 26 27 28 29 30 31 32 33 34 35 36 37 38 39 40 41 42 43 44 45 46 47 48 49 50
000
ASUS43 KFGF 271810
RWRFGF
PRAIRIE TO PINES  WEATHER ROUNDUP
NATIONAL WEATHER SERVICE EASTERN NORTH DAKOTA/GRAND FORKS ND
100 PM CDT WED AUG 27 2014

 **SATELLITE DATA USED TO AUGMENT SKY COVER AT AUTOMATED STATIONS**
 *****  WEATHER ACROSS EASTERN NORTH DAKOTA  *****

CITY           SKY/WX    TMP DP  RH WIND       PRES   REMARKS
GRAND FORKS    FAIR      71  53  52 S12       30.16F
6HR MIN TEMP:  48; 6HR MAX TEMP:  71;

GRAND FRKS AFB FAIR      72  54  53 SW9       30.17F
GRAND FRKS NWS   N/A     72 N/A N/A S9          N/A
DEVILS LAKE    FAIR      66  52  59 S6        30.15S
6HR MIN TEMP:  48; 6HR MAX TEMP:  68;

FARGO          FAIR      71  57  61 VRB3      30.17F
WAHPETON ARPT  MOCLDY    68  55  64 S9        30.19S
$$

 ***** WEATHER ACROSS CENTRAL AND WESTERN NORTH DAKOTA  *****

CITY           SKY/WX    TMP DP  RH WIND       PRES   REMARKS
BISMARCK       SUNNY     71  58  63 S6        30.14F
6HR MIN TEMP:  49; 6HR MAX TEMP:  72;

MINOT          FAIR      72  52  49 S12       30.10F
6HR MIN TEMP:  52; 6HR MAX TEMP:  72;

JAMESTOWN      FAIR      70  59  68 SE10      30.16F
6HR MIN TEMP:  49; 6HR MAX TEMP:  70;

MINOT AFB      FAIR      72  54  52 S10       30.09F
GARRISON         N/A     70  59  68 S5        30.12F
WILLISTON      SUNNY     77  58  51 SE8       30.06F
6HR MIN TEMP:  50; 6HR MAX TEMP:  77;

DICKINSON      SUNNY     72  58  61 S8        30.10F
6HR MIN TEMP:  47; 6HR MAX TEMP:  72;

HETTINGER      SUNNY     72  57  59 SE9       30.13F
6HR MIN TEMP:  46; 6HR MAX TEMP:  73;

$$

 *****  OTHER AIRPORT OBSERVATIONS IN OUR AREA  *****

CITY           SKY/WX    TMP DP  RH WIND       PRES   REMARKS
WALHALLA       FAIR      72  50  46 S13       30.14F
GRAFTON AIRPOR FAIR      72  50  46 SW6       30.16S
VALLEY CITY AR FAIR      70  59  68 S8        30.17F
CANDO          FAIR      68  55  64 SE5       30.15F
CAVALIER APRT  FAIR      72  54  53 SW8       30.15S
GWINNER        PTCLDY    72  59  64 SE8       30.18F
ROLLA          FAIR      66  52  59 S13G20    30.15F
 ***** THE ABOVE OBSERVATIONS ARE NON NWS ARE NOT QUALITY
       CONTROLLED AND MAY MIS-REPORT RAIN FOR SNOW...
$$

  *****  WEATHER ACROSS NORTHERN MINNESOTA  *****

CITY           SKY/WX    TMP DP  RH WIND       PRES   REMARKS
FLAG ISLAND    FAIR      66  57  72 S7        30.16S
WARROAD        FAIR      66  54  63 E5        30.18S
ROSEAU         FAIR      70  50  49 CALM      30.18S
HALLOCK        FAIR      72  46  40 S5        30.16S
THF RVR FALLS  FAIR      68  50  52 W5        30.18F
6HR MIN TEMP:  48; 6HR MAX TEMP:  70;

BAUDETTE       FAIR      68  53  58 MISG      30.18F
6HR MIN TEMP:  48; 6HR MAX TEMP:  69;

WASKISH        FAIR      68  55  64 SW3       30.19S
CROOKSTON      FAIR      70  52  52 SW7       30.18F
$$
  *****  WEATHER ACROSS CENTRAL AND WEST MINNESOTA  *****

CITY           SKY/WX    TMP DP  RH WIND       PRES   REMARKS
FOSSTON        FAIR      70  52  52 SW7       30.20F
BEMIDJI        FAIR      66  49  55 W3        30.19F
PARK RAPIDS    FAIR      67  54  63 SE8       30.21F
6HR MIN TEMP:  50; 6HR MAX TEMP:  67;

ELBOW LAKE     MOCLDY    69  59  70 S9        30.20F
6HR MIN TEMP:  58; 6HR MAX TEMP:  69;

WADENA         CLOUDY    64  55  72 S3        30.21S
DETROIT LAKES  PTSUNNY   66  55  68 CALM      30.21F
MOORHEAD       FAIR      70  59  68 CALM      30.19S
FERGUS FALLS   PTSUNNY   70  54  56 S8        30.20S
MORRIS MN      FAIR      72  57  60 S8        30.19F
STAPLES        PTSUNNY   66  55  68 S5        30.22S
$$
  *****  WEATHER ELSEWHERE ACROSS MINNESOTA  *****

CITY           SKY/WX    TMP DP  RH WIND       PRES   REMARKS
DULUTH         FAIR      69  47  45 W10       30.22S
6HR MIN TEMP:  50; 6HR MAX TEMP:  69;

INTRNTL FALLS  FAIR      65  51  60 CALM      30.18F
6HR MIN TEMP:  42; 6HR MAX TEMP:  67;

ELY            CLOUDY    63  45  51 SW6       30.21S
CLOQUET        PTSUNNY   64  46  52 SW3       30.23S
WHEATON        PTSUNNY   66  59  77 SE8       30.20F
BRAINERD       CLOUDY    66  55  67 VRB5      30.22F
6HR MIN TEMP:  53; 6HR MAX TEMP:  66;

HIBBING        PTSUNNY   68  48  48 VRB3      30.21F
6HR MIN TEMP:  40; 6HR MAX TEMP:  68;

ALEXANDRIA     CLOUDY    68  56  65 SE6       30.22F
6HR MIN TEMP:  56; 6HR MAX TEMP:  69;

SAINT CLOUD    CLOUDY    72  54  53 S5        30.21F
6HR MIN TEMP:  57; 6HR MAX TEMP:  72;

MINNEAPOLIS    PTSUNNY   73  53  49 CALM      30.20F
6HR MIN TEMP:  60; 6HR MAX TEMP:  73;

$$

  *****  WEATHER ACROSS SOUTH DAKOTA  *****

CITY           SKY/WX    TMP DP  RH WIND       PRES   REMARKS
SIOUX FALLS    PTSUNNY   69  60  73 SE12      30.16F
6HR MIN TEMP:  60; 6HR MAX TEMP:  69;

BROOKINGS      NOT AVBL
WATERTOWN      CLOUDY    67  58  72 S10       30.18F
6HR MIN TEMP:  56; 6HR MAX TEMP:  68;

HURON          PTSUNNY   73  62  68 SE9       30.12F
6HR MIN TEMP:  59; 6HR MAX TEMP:  73; 6HR PCP: TRACE;

SISSETON         N/A     71  60  68 S10       30.17F
ABERDEEN       MOSUNNY   69  59  70 SE10      30.15F
6HR MIN TEMP:  53; 6HR MAX TEMP:  71;

MITCHELL       MOSUNNY   76  66  71 SE10      30.12F
PIERRE         CLOUDY    66  63  90 E12       30.10F
6HR MIN TEMP:  60; 6HR MAX TEMP:  67;

MOBRIDGE       CLOUDY    71  61  70 SE15      30.10F
RAPID CITY     MOSUNNY   71  60  68 NE5       30.14S
6HR MIN TEMP:  55; 6HR MAX TEMP:  71;

$$

  *****  SOME WEATHER IN NEARBY STATES *****

CITY           SKY/WX    TMP DP  RH WIND       PRES   REMARKS
GLASGOW MT     SUNNY     77  56  48 S7        29.99F
6HR MIN TEMP:  52; 6HR MAX TEMP:  77;

GREAT FALLS MT SUNNY     77  44  30 W9        30.06F
6HR MIN TEMP:  49; 6HR MAX TEMP:  77;

CHEYENNE WY    CLOUDY    63  50  62 NW7       30.22S
6HR MIN TEMP:  57; 6HR MAX TEMP:  65; 6HR PCP:  0.08;

SCOTTSBLUFF NE LGT RAIN  70  64  81 SE5       30.12R
6HR MIN TEMP:  61; 6HR MAX TEMP:  71; 6HR PCP: TRACE;

OMAHA NE       LGT RAIN  70  67  90 SE12      30.16S
6HR MIN TEMP:  68; 6HR MAX TEMP:  70; 6HR PCP:  1.44;

DES MOINES IA  LGT RAIN  74  65  73 CALM      30.17F
6HR MIN TEMP:  68; 6HR MAX TEMP:  75; 6HR PCP:  0.01;

DAVENPORT IA   PTSUNNY   75  62  64 CALM      30.18S
6HR MIN TEMP:  65; 6HR MAX TEMP:  77;

CHICAGO IL     PTSUNNY   80  57  45 VRB6      30.14S
6HR MIN TEMP:  68; 6HR MAX TEMP:  80;

EAU CLAIRE WI  FAIR      70  53  54 VRB3      30.20F
6HR MIN TEMP:  58; 6HR MAX TEMP:  71;

LA CROSSE WI   FAIR      75  56  51 VRB3      30.18F
6HR MIN TEMP:  64; 6HR MAX TEMP:  76;

$$

  *****  SOME NATIONAL WEATHER *****

CITY           SKY/WX    TMP DP  RH WIND       PRES   REMARKS
LA GUARDIA NY  MOSUNNY   89  62  40 SW7       29.93F
6HR MIN TEMP:  75; 6HR MAX TEMP:  89;

RALEIGH NC     MOSUNNY   83  62  49 N8        30.03F
6HR MIN TEMP:  64; 6HR MAX TEMP:  84;

ATLANTA GA     MOSUNNY   84  61  45 N6        30.10F
6HR MIN TEMP:  68; 6HR MAX TEMP:  84;

NEW ORLEANS LA PTSUNNY   89  72  56 NE9       30.01F HX  96
6HR MIN TEMP:  82; 6HR MAX TEMP:  91;

OKLAHOMA CITY  FAIR      92  65  40 SE7       30.08F HX  94
6HR MIN TEMP:  70; 6HR MAX TEMP:  92;

ALBUQUERQUE NM MOSUNNY   72  54  53 W5        30.31F
6HR MIN TEMP:  60; 6HR MAX TEMP:  72;

SALT LAKE CITY PTSUNNY   68  52  56 CALM      30.23F
6HR MIN TEMP:  60; 6HR MAX TEMP:  70;

LOS ANGELES CA SUNNY     82  62  50 W9        30.04S
6HR MIN TEMP:  67; 6HR MAX TEMP:  83;

BOISE ID       SUNNY     81  44  27 CALM      30.15S



USA.gov is the U.S. government's official web portal to all federal, state and local government web resources and services.